TimeEDT,TemperatureF,Dew PointF,Humidity,Sea Level PressureIn,VisibilityMPH,Wind Direction,Wind SpeedMPH,Gust SpeedMPH,PrecipitationIn,Events,Conditions,WindDirDegrees,DateUTC
12:15 AM,41.0,28.6,61,30.39,10.0,Calm,Calm,-,N/A,,Clear,0,2013-04-22 04:15:00
12:35 AM,40.6,30.2,66,30.39,10.0,Calm,Calm,-,N/A,,Clear,0,2013-04-22 04:35:00
12:55 AM,41.7,27.7,58,30.39,10.0,Calm,Calm,-,N/A,,Clear,0,2013-04-22 04:55:00
1:15 AM,39.6,28.2,64,30.38,10.0,Calm,Calm,-,N/A,,Clear,0,2013-04-22 05:15:00
1:35 AM,38.3,29.8,72,30.38,10.0,Calm,Calm,-,N/A,,Clear,0,2013-04-22 05:35:00
1:55 AM,38.3,28.2,67,30.37,10.0,Calm,Calm,-,N/A,,Clear,0,2013-04-22 05:55:00
2:15 AM,37.4,30.4,76,30.36,10.0,Calm,Calm,-,N/A,,Clear,0,2013-04-22 06:15:00
2:35 AM,36.9,30.0,76,30.36,10.0,Calm,Calm,-,N/A,,Clear,0,2013-04-22 06:35:00
2:55 AM,37.0,29.7,75,30.36,10.0,Calm,Calm,-,N/A,,Clear,0,2013-04-22 06:55:00
3:15 AM,37.4,27.7,68,30.35,10.0,Calm,Calm,-,N/A,,Clear,0,2013-04-22 07:15:00
3:35 AM,36.9,27.5,69,30.35,10.0,Calm,Calm,-,N/A,,Clear,0,2013-04-22 07:35:00
3:55 AM,35.1,30.2,82,30.35,10.0,Calm,Calm,-,N/A,,Clear,0,2013-04-22 07:55:00
4:15 AM,34.9,30.2,83,30.35,10.0,Calm,Calm,-,N/A,,Clear,0,2013-04-22 08:15:00
4:35 AM,35.1,29.7,81,30.34,10.0,Calm,Calm,-,N/A,,Clear,0,2013-04-22 08:35:00
4:55 AM,34.7,28.0,77,30.34,10.0,Calm,Calm,-,N/A,,Clear,0,2013-04-22 08:55:00
5:15 AM,33.8,29.8,85,30.34,10.0,Calm,Calm,-,N/A,,Clear,0,2013-04-22 09:15:00
5:35 AM,34.2,30.2,85,30.34,10.0,Calm,Calm,-,N/A,,Clear,0,2013-04-22 09:35:00
5:55 AM,33.6,29.8,86,30.34,10.0,Calm,Calm,-,N/A,,Clear,0,2013-04-22 09:55:00
6:15 AM,32.7,29.8,89,30.34,10.0,Calm,Calm,-,N/A,,Clear,0,2013-04-22 10:15:00
6:35 AM,32.4,29.3,88,30.34,10.0,Calm,Calm,-,N/A,,Clear,0,2013-04-22 10:35:00
6:55 AM,32.5,29.7,89,30.35,10.0,Calm,Calm,-,N/A,,Clear,0,2013-04-22 10:55:00
7:15 AM,33.1,29.5,87,30.35,10.0,Calm,Calm,-,N/A,,Clear,0,2013-04-22 11:15:00
7:35 AM,33.8,30.2,87,30.36,10.0,Calm,Calm,-,N/A,,Clear,0,2013-04-22 11:35:00
7:55 AM,36.1,32.5,87,30.36,10.0,Calm,Calm,-,N/A,,Clear,0,2013-04-22 11:55:00
8:15 AM,43.7,35.8,74,30.36,10.0,Calm,Calm,-,N/A,,Clear,0,2013-04-22 12:15:00
8:35 AM,49.3,32.9,53,30.36,10.0,SSE,3.5,-,N/A,,Clear,150,2013-04-22 12:35:00
8:55 AM,50.9,33.3,51,30.36,10.0,SSE,8.1,-,N/A,,Clear,150,2013-04-22 12:55:00
9:15 AM,52.0,33.4,49,30.36,10.0,SSE,5.8,-,N/A,,Clear,150,2013-04-22 13:15:00
9:35 AM,53.1,33.1,47,30.36,10.0,South,8.1,-,N/A,,Clear,170,2013-04-22 13:35:00
9:55 AM,54.3,33.6,46,30.36,10.0,SSE,8.1,-,N/A,,Clear,160,2013-04-22 13:55:00
10:15 AM,55.4,34.0,44,30.36,10.0,South,8.1,-,N/A,,Clear,170,2013-04-22 14:15:00
10:35 AM,56.7,35.2,45,30.36,10.0,South,3.5,-,N/A,,Clear,170,2013-04-22 14:35:00
10:55 AM,57.9,34.5,41,30.36,10.0,SW,5.8,-,N/A,,Clear,220,2013-04-22 14:55:00
11:15 AM,59.0,34.9,40,30.35,10.0,ESE,4.6,-,N/A,,Clear,120,2013-04-22 15:15:00
11:35 AM,60.1,35.6,40,30.34,10.0,South,4.6,-,N/A,,Clear,190,2013-04-22 15:35:00
11:55 AM,61.0,35.2,38,30.34,10.0,Calm,Calm,-,N/A,,Clear,0,2013-04-22 15:55:00
12:15 PM,61.2,35.6,39,30.32,10.0,Calm,Calm,-,N/A,,Clear,0,2013-04-22 16:15:00
12:35 PM,62.8,34.3,35,30.32,10.0,SE,3.5,-,N/A,,Clear,130,2013-04-22 16:35:00
12:55 PM,63.7,33.6,33,30.31,10.0,ESE,3.5,-,N/A,,Clear,120,2013-04-22 16:55:00
1:15 PM,63.7,34.2,33,30.29,10.0,WSW,3.5,-,N/A,,Clear,250,2013-04-22 17:15:00
1:35 PM,65.1,32.9,30,30.29,10.0,Calm,Calm,-,N/A,,Clear,0,2013-04-22 17:35:00
1:55 PM,65.3,32.2,29,30.27,10.0,South,4.6,-,N/A,,Clear,170,2013-04-22 17:55:00
2:15 PM,66.2,33.3,29,30.26,10.0,SW,6.9,-,N/A,,Clear,230,2013-04-22 18:15:00
2:35 PM,66.7,32.9,28,30.25,10.0,Calm,Calm,-,N/A,,Clear,0,2013-04-22 18:35:00
2:55 PM,66.4,33.3,29,30.24,10.0,Calm,Calm,-,N/A,,Clear,0,2013-04-22 18:55:00
3:15 PM,67.6,33.1,28,30.24,10.0,SE,4.6,-,N/A,,Clear,130,2013-04-22 19:15:00
3:35 PM,68.2,32.0,26,30.23,10.0,SSE,3.5,-,N/A,,Clear,150,2013-04-22 19:35:00
3:55 PM,68.4,33.1,27,30.22,10.0,South,6.9,-,N/A,,Clear,170,2013-04-22 19:55:00
4:15 PM,68.5,33.4,27,30.21,10.0,SE,6.9,-,N/A,,Scattered Clouds,140,2013-04-22 20:15:00
4:35 PM,68.7,32.2,26,30.20,10.0,Calm,Calm,-,N/A,,Scattered Clouds,0,2013-04-22 20:35:00
4:55 PM,68.9,33.6,27,30.20,10.0,ESE,4.6,-,N/A,,Scattered Clouds,120,2013-04-22 20:55:00
5:15 PM,68.2,32.4,26,30.19,10.0,Calm,Calm,-,N/A,,Scattered Clouds,0,2013-04-22 21:15:00
5:35 PM,67.1,31.6,27,30.19,10.0,Calm,Calm,-,N/A,,Clear,0,2013-04-22 21:35:00
5:55 PM,68.0,31.1,25,30.19,10.0,ESE,3.5,-,N/A,,Clear,120,2013-04-22 21:55:00
6:15 PM,67.1,31.3,26,30.19,10.0,East,4.6,-,N/A,,Clear,90,2013-04-22 22:15:00
6:35 PM,67.5,31.5,26,30.19,10.0,Calm,Calm,-,N/A,,Clear,0,2013-04-22 22:35:00
6:55 PM,67.1,31.1,26,30.18,10.0,SE,3.5,-,N/A,,Clear,130,2013-04-22 22:55:00
7:15 PM,66.6,31.6,27,30.18,10.0,East,3.5,-,N/A,,Clear,100,2013-04-22 23:15:00
7:35 PM,66.2,30.4,26,30.18,10.0,Calm,Calm,-,N/A,,Clear,0,2013-04-22 23:35:00
7:55 PM,65.1,31.5,28,30.18,10.0,Calm,Calm,-,N/A,,Clear,0,2013-04-22 23:55:00
8:15 PM,62.6,32.9,33,30.18,10.0,Calm,Calm,-,N/A,,Clear,0,2013-04-23 00:15:00
8:35 PM,57.7,37.2,46,30.18,10.0,Calm,Calm,-,N/A,,Clear,0,2013-04-23 00:35:00
8:55 PM,56.5,37.8,50,30.19,10.0,Calm,Calm,-,N/A,,Clear,0,2013-04-23 00:55:00
9:15 PM,53.8,41.2,62,30.19,10.0,Calm,Calm,-,N/A,,Clear,0,2013-04-23 01:15:00
9:35 PM,51.6,40.3,65,30.19,10.0,Calm,Calm,-,N/A,,Clear,0,2013-04-23 01:35:00
9:55 PM,50.9,39.2,64,30.19,10.0,Calm,Calm,-,N/A,,Clear,0,2013-04-23 01:55:00
10:15 PM,49.1,39.0,68,30.19,10.0,Calm,Calm,-,N/A,,Clear,0,2013-04-23 02:15:00
10:35 PM,48.9,38.1,66,30.19,10.0,Calm,Calm,-,N/A,,Clear,0,2013-04-23 02:35:00
10:55 PM,48.4,37.4,66,30.18,10.0,Calm,Calm,-,N/A,,Clear,0,2013-04-23 02:55:00
11:15 PM,46.2,37.4,71,30.19,10.0,Calm,Calm,-,N/A,,Clear,0,2013-04-23 03:15:00
11:35 PM,46.4,37.4,71,30.18,10.0,Calm,Calm,-,N/A,,Clear,0,2013-04-23 03:35:00
11:55 PM,45.5,38.7,77,30.18,10.0,Calm,Calm,-,N/A,,Clear,0,2013-04-23 03:55:00